Location: Góry Miechowskie
(50.3599°N, 20.1803°E)
Time: 02:31:38
(UTC+00:00)

Vanguard 2 - Pass Details

Date: 17 September 2024
Orbit: 552 x 2910 km, 32.9° (Epoch: 09 October)

Event Time Altitude Azimuth Distance (km) Brightness Sun altitude
Rises 05:15:47 0° 247° (WSW) 3,643 10.5 8.3°
Reaches altitude 10° 05:18:56 10° 228° (SW) 3,016 10.2 8.8°
Maximum altitude 05:23:55 19° 187° (S) 2,904 10.6 9.6°
Drops below altitude 10° 05:30:31 10° 149° (SSE) 4,184 12.0 10.6°
Sets 05:36:06 0° 134° (SE) 5,672 13.0 11.5°
